Weather Roundup
Issued by NWS Springfield, MO

Home | Current Version | Previous Version | Text Only | Print | Product List | Glossary On
Versions: 1 2 3 4 5 6 7 8 9 10 11 12 13 14 15 16 17 18 19 20 21 22 23 24 25 26 27 28 29 30 31 32 33 34 35 36 37 38 39 40 41 42 43 44 45 46 47 48 49 50
000
NZUS99 KSGF 181507
HRRSGF

HOURLY WEATHER
NATIONAL WEATHER SERVICE SPRINGFIELD MO
1000 AM CDT FRI AUG 18 2017

......SGF CWA......

CITY           SKY/WX    TMP DP  RH WIND       PRES   REMARKS
SPRINGFIELD    CLOUDY    73  70  90 SE5       30.04R
JOPLIN         CLOUDY    76  75  97 SW6       30.04R
WEST PLAINS    SUNNY     77  65  66 W7        30.07R
ROLLA          SUNNY     76  63  64 W9        30.04R
OSAGE BEACH    SUNNY     74  65  73 W5        30.03R
BRANSON        CLOUDY    73  73 100 SW7       30.08R FOG

......SURROUNDING SGF CWA......

CITY           SKY/WX    TMP DP  RH WIND       PRES   REMARKS
CHANUTE        CLOUDY    73  68  84 S5        30.00F
PARSONS        PTSUNNY   77  72  84 VRB6      30.02S
COFFEYVILLE    PTSUNNY   78  75  90 S7        30.00S
EMPORIA        PTSUNNY   72  65  78 NW6       30.01R
GROVE OK       CLOUDY    77  77 100 SW7       30.04S
ROGERS AR      CLOUDY    75  73  93 SW8       30.07R FOG
SILOAM SPRINGS CLOUDY    75  73  94 SW9       30.06R
HARRISON AR    MOSUNNY   78  72  81 W6        30.08S
NEAR YELLVILLE MOSUNNY   79  68  69 CALM      30.03S

......KANSAS AND MISSOURI......

CITY           SKY/WX    TMP DP  RH WIND       PRES   REMARKS
KANSAS CTY INT CLOUDY    72  65  78 SW12      29.98R
DOWNTOWN KC    MOSUNNY   76  65  68 W8        29.98R
COLUMBIA       SUNNY     77  63  61 W7        30.00S
SEDALIA        SUNNY     78  68  71 SW12      30.01R
ST JOSEPH      MOSUNNY   72  67  84 S6        29.92F
ST LOUIS       MOSUNNY   78  64  61 NW9       30.01R
SPIRIT OF STL  SUNNY     77  67  71 W5        30.00R
KIRKSVILLE     MOSUNNY   79  63  57 SW6       29.98S
WICHITA        CLOUDY    74  65  73 S5        30.00S
TOPEKA         CLOUDY    74  67  78 S7        29.97F
OLATHE         CLOUDY    70  64  81 S6        29.99S

......TENNESSEE......

CITY           SKY/WX    TMP DP  RH WIND       PRES   REMARKS
MEMPHIS        MOSUNNY   82  72  71 CALM      30.05R
NASHVILLE      PTSUNNY   83  67  58 W6        30.01R

......ARKANSAS.......

CITY           SKY/WX    TMP DP  RH WIND       PRES   REMARKS
FAYETTEVILLE   MOSUNNY   80  75  84 S13       30.06S
FT SMITH       SUNNY     80  75  84 CALM      30.04S
LITTLE ROCK    MOSUNNY   83  76  79 CALM      30.04S HX  91

......OKLAHOMA.......

CITY           SKY/WX    TMP DP  RH WIND       PRES   REMARKS
TULSA          CLOUDY    82  75  79 S9        29.99F
PONCA CITY     CLOUDY    78  68  71 S7        29.99R
MCALESTER      MOSUNNY   83  77  82 MISG      30.04F HX  92
OKLAHOMA CITY  PTSUNNY   77  64  64 W10       30.04F

......IOWA............

CITY           SKY/WX    TMP DP  RH WIND       PRES   REMARKS
DES MOINES     CLOUDY    71  62  73 CALM      29.92R
QUAD CITIES    PTSUNNY   74  60  61 W7        29.92R

......ILLINOIS........

CITY           SKY/WX    TMP DP  RH WIND       PRES   REMARKS
QUINCY         SUNNY     74  65  73 S5        29.97R
CHICAGO        PTSUNNY   72  61  68 NW14G22   29.87R




USA.gov is the U.S. government's official web portal to all federal, state and local government web resources and services.